Weather in Vankarem

Russia / Chukotka Autonomous Okrug     67°50′27″N   175°50′17″W
temp.,
°C
wind,
m/s
gust,
m/s
humid.,
%
clouds,
%
prec.,
mm/h
press.,
hPa
HPBL,
m
26 january, wed
wed2600:00−28wsw5895100 0.1 1014120
03:00−31wsw468873 0.0 101765
06:00−33sw468812 0.0 102054
09:00−33sw468735 0.0 102353
12:00−32sw4586100 0.0 102658
15:00−31sw348887 0.0 102739
18:00−32ssw2290100 0.0 102927
21:00−33ssw2292100 0.0 103024
27 january, thu
thu2700:00−31ssw358883 0.0 103155
03:00−32ssw34895 0.0 103240
06:00−32ssw36895 0.0 103356
09:00−31ssw46895 0.0 103459
12:00−31ssw36895 0.0 103567
15:00−31ssw35895 0.0 103546
18:00−32ssw229218 0.0 103620
21:00−31ssw229221 0.0 103616
28 january, fri
fri2800:00−30sse22935 0.0 103612
03:00−31s11945 0.0 10359
06:00−32sw22975 0.0 10369
09:00−32wsw119811 0.0 10369
12:00−32sw22985 0.0 103612
15:00−32ssw111006 0.0 10359
18:00−32ssw22995 0.0 103510
21:00−32ssw22995 0.0 103511
29 january, sat
sat2900:00−32s221005 0.0 103512
03:00−31s221005 0.0 103413
06:00−31s221005 0.0 103412
09:00−30s221006 0.0 103412
12:00−28s22995 0.0 103316
15:00−28s221008 0.0 103213
18:00−27s2210036 0.0 103114
21:00−27sse2210042 0.0 103014
30 january, sun
sun3000:00−26sse2210043 0.0 102918
03:00−26sse2210048 0.0 102813
06:00−25se3310041 0.0 102723
09:00−26se221007 0.0 102712
12:00−26sse2210040 0.0 102715
15:00−27ssw1110027 0.0 10289
18:00−27sw221005 0.0 10289
21:00−28sw2210033 0.0 103011